SCP
0 0 1 1 1 1 1 1 1 1 1 1 1 1 1 1 1 1 2 2 2 2 2 2 2 2 2 2 2 1 1 0 0 0 0 0 0 0 0 0 0 0 0
0 1 1 1 1 1 1 1 1 1 1 1 1 1 1 1 1 1 2 2 2 2 2 2 2 2 2 2 2 2 1 0 0 0 0 0 0 0 0 0 0 0 0
1 1 1 1 1 1 1 1 1 1 1 1 1 2 2 1 1 1 2 2 2 2 2 2 2 2 2 2 2 1 1 0 0 0 0 0 0 0 0 0 0 0 0
1 1 1 1 1 1 1 1 1 1 1 1 1 2 2 1 1 1 1 1 2 2 2 2 3 3 2 2 1 1 1 1 1 0 0 0 0 0 0 0 0 0 0
2 1 1 1 1 1 1 2 2 1 1 1 1 1 1 1 1 1 1 1 1 1 2 2 3 2 2 2 1 1 1 1 1 1 0 0 0 0 0 0 0 0 0
2 2 1 1 1 1 2 2 2 2 1 1 1 1 1 1 1 1 1 1 1 1 2 2 2 2 2 2 1 1 1 1 1 1 0 0 0 0 0 0 0 0 0
2 2 2 2 2 2 2 2 2 2 2 2 1 1 1 1 1 1 1 1 1 1 2 2 2 2 2 1 1 1 1 1 1 1 0 0 0 0 0 0 0 0 0
3 3 3 3 3 3 3 3 2 2 2 2 2 1 1 1 1 1 1 1 2 2 2 2 2 2 2 1 1 1 1 1 1 1 0 0 0 0 0 0 0 0 0
6 6 6 5 5 5 4 3 3 3 2 2 2 2 1 1 1 2 2 2 2 2 2 2 2 2 2 2 2 2 1 1 1 1 0 0 0 0 0 0 0 0 0
9 8 7 6 5 4 4 4 3 3 3 3 3 2 2 2 2 2 2 2 2 2 2 2 2 2 2 2 2 2 2 2 1 1 1 0 0 0 0 0 0 0 0
8 6 5 4 4 3 4 4 4 4 4 3 3 2 2 2 2 2 2 2 2 2 2 2 2 2 2 2 2 2 2 2 2 1 1 1 0 0 1 1 1 1 0
4 3 3 3 3 3 4 4 4 3 3 3 3 3 3 2 2 2 2 2 3 3 3 2 2 2 2 2 2 2 2 2 2 2 1 1 1 1 1 1 1 1 1
2 2 2 3 4 3 3 3 3 3 3 3 3 3 3 3 2 2 2 3 3 4 4 4 3 3 2 2 2 2 2 2 2 2 1 1 1 1 1 1 1 1 1
2 2 3 3 3 2 2 2 3 3 3 3 4 4 4 3 2 2 2 3 4 5 5 5 5 4 3 3 3 2 2 2 2 1 1 1 1 1 1 1 1 1 1
3 3 4 3 2 2 2 3 3 3 3 4 5 5 4 3 2 2 2 3 4 5 6 6 6 5 4 4 3 3 3 2 2 1 1 1 1 1 1 1 1 1 1
4 4 4 3 2 2 3 3 3 3 3 4 5 5 4 3 2 2 2 3 4 4 5 6 6 5 5 4 3 3 3 2 2 1 1 1 1 1 1 1 1 0 1
4 5 4 3 3 4 4 4 4 3 3 4 5 4 4 3 3 2 2 2 3 4 4 5 5 5 5 3 2 2 2 2 2 1 1 1 1 1 1 1 0 0 0
4 4 4 4 5 6 6 5 4 4 3 3 4 5 4 4 3 3 2 2 2 3 4 4 5 5 4 2 1 1 1 1 1 1 1 1 1 1 1 1 1 0 0
4 4 5 7 8 8 7 6 5 4 3 3 4 5 5 5 4 4 3 3 2 3 3 4 4 4 2 1 1 1 1 1 1 1 1 1 1 1 1 1 1 1 1
5 6 8 10 10 9 8 6 5 3 3 3 4 5 6 6 5 5 4 4 3 3 3 4 4 3 2 1 1 1 1 1 1 1 1 1 1 1 1 1 1 1 1
6 7 10 11 11 9 8 6 4 3 2 2 3 4 5 6 6 5 5 5 4 4 3 3 3 2 2 1 1 0 1 1 1 1 1 1 1 0 0 0 1 1 1
6 7 9 10 9 8 8 6 4 3 2 2 2 3 4 5 5 5 5 5 5 4 4 3 3 2 1 1 0 0 0 1 1 1 1 1 0 0 0 0 0 0 0
5 6 7 7 7 7 6 6 5 4 3 2 2 2 2 3 4 3 4 4 5 4 4 4 3 2 1 1 0 0 0 0 0 1 0 0 0 0 0 0 0 0 0
3 4 5 5 4 4 4 4 5 5 4 2 1 1 1 2 2 2 3 4 4 4 4 4 4 2 1 1 1 1 0 0 0 0 0 0 0 0 0 0 0 0 0
2 2 4 4 3 3 3 3 4 4 3 2 1 1 1 1 2 2 2 2 3 3 4 4 3 2 1 1 1 0 0 0 0 0 0 0 0 1 1 1 1 1 0
2 2 3 4 3 3 3 2 2 2 2 1 1 1 1 2 2 2 2 2 2 2 2 3 2 2 1 1 0 0 0 0 0 0 0 0 1 1 1 1 1 1 1
Wind_Speed
5 4 5 5 4 3 3 3 3 3 3 2 1 1 0 0 1 0 1 1 1 1 1 1 1 1 1 1 1 1 1 1 1 2 2 2 1 1 0 1 1 1 1
4 5 5 5 5 5 4 4 4 3 3 2 2 1 1 0 0 1 1 1 1 1 1 1 1 1 1 1 1 2 2 1 1 2 2 1 2 2 1 0 1 1 1
7 6 6 5 5 6 6 5 4 4 3 3 2 2 2 1 1 1 1 1 0 0 1 1 1 1 1 1 2 2 3 2 1 1 2 2 1 1 1 1 0 0 0
7 7 6 6 7 7 5 5 5 4 3 4 3 3 2 1 1 0 0 1 1 1 1 1 1 2 1 2 2 2 2 2 1 1 1 1 2 2 0 1 1 0 0
8 8 8 8 7 6 5 5 4 4 4 4 4 3 2 2 0 0 0 1 1 1 1 1 1 2 1 2 2 2 2 2 2 1 1 1 1 1 2 1 1 1 0
8 7 7 6 5 5 5 5 5 4 4 4 4 4 4 2 1 0 1 1 1 2 2 0 1 1 1 1 2 2 2 2 2 1 1 2 2 2 2 2 1 0 1
8 7 7 7 7 6 6 5 5 4 4 4 4 4 4 4 3 2 1 1 1 1 2 1 0 1 1 2 2 2 2 2 2 2 1 1 1 1 2 2 1 0 1
7 8 8 8 8 7 7 6 6 5 4 5 4 3 3 3 2 2 2 2 2 2 1 0 1 1 1 1 2 1 1 1 1 1 1 1 1 1 2 2 3 1 1
7 7 7 7 7 6 6 6 6 5 4 5 4 3 3 3 3 2 2 1 1 1 0 0 1 1 1 1 2 2 1 1 1 0 1 1 1 1 1 2 3 3 2
5 6 5 6 6 6 5 4 5 4 3 3 4 4 3 4 3 2 2 2 1 1 0 1 1 1 1 2 2 2 1 2 1 1 1 0 1 1 1 1 1 1 2
5 4 4 5 5 5 5 5 4 3 3 3 3 2 2 2 2 2 2 2 1 1 1 1 1 1 1 2 2 2 2 2 2 1 1 1 1 1 1 2 2 1 2
4 3 4 4 4 5 4 4 4 4 4 3 3 3 2 2 2 2 2 2 2 1 1 1 1 1 2 2 2 2 2 3 2 2 2 1 2 2 2 2 2 2 1
4 4 4 4 4 4 4 4 4 4 3 4 4 3 3 2 2 2 2 2 2 1 1 2 2 2 2 2 2 2 3 3 3 3 2 2 2 2 2 2 2 1 2
4 4 4 3 3 3 3 3 3 3 4 4 4 3 3 2 2 2 2 2 2 2 2 2 2 2 2 2 2 3 3 3 3 3 3 2 2 2 2 2 2 2 3
4 4 4 3 3 3 2 2 2 3 4 4 4 3 2 2 2 2 2 2 2 2 2 2 2 2 2 2 3 3 3 4 3 3 3 3 4 4 3 3 2 3 3
4 4 4 4 4 3 3 3 3 3 4 4 3 3 3 2 2 2 3 3 3 3 3 3 2 2 1 3 5 4 3 3 3 2 2 3 4 5 6 6 5 5 3
6 5 4 4 3 3 3 3 3 3 4 4 4 3 3 3 2 3 3 3 3 3 3 3 2 2 2 3 4 5 3 3 2 2 2 2 3 4 4 6 7 6 6
5 5 4 3 3 3 3 4 5 4 4 4 3 3 3 3 3 3 3 2 2 3 2 2 2 2 3 4 4 5 4 3 3 3 2 2 2 3 4 4 5 4 4
5 4 4 4 4 4 4 6 6 5 5 4 3 3 3 4 4 4 3 2 2 2 2 2 2 3 3 4 5 5 4 4 3 3 3 2 3 3 5 5 4 4 3
4 5 5 5 5 3 4 6 5 5 4 3 3 3 3 4 4 3 3 2 3 2 3 3 3 3 3 4 5 5 3 3 3 3 3 4 4 4 4 4 4 3 2
5 5 6 5 3 4 5 5 4 3 3 3 3 4 3 3 3 3 3 3 3 4 4 4 3 3 3 4 5 5 3 3 2 2 2 3 5 6 5 4 3 2 2
5 5 5 4 3 4 5 5 3 2 3 4 4 4 3 3 3 4 4 3 4 5 4 3 3 3 2 3 4 5 4 4 3 2 2 2 4 5 5 4 4 4 4
5 5 5 5 4 3 4 5 3 3 4 5 4 4 4 4 3 4 4 3 3 3 3 3 2 2 2 2 4 4 4 5 4 3 4 4 5 5 4 5 5 4 3
4 5 5 5 3 3 3 4 4 4 5 5 4 4 4 4 4 3 3 3 2 2 2 2 2 1 1 1 2 2 3 4 4 3 4 6 6 5 4 3 2 2 2
3 4 4 4 3 3 4 4 4 5 6 5 4 4 4 4 4 3 3 2 1 1 2 2 2 2 1 1 2 3 2 2 2 3 3 3 3 3 3 2 2 2 2
3 4 4 4 3 4 4 3 3 5 6 5 4 3 3 3 3 3 3 6 4 5 4 3 3 1 2 3 5 5 4 4 5 5 3 3 2 2 1 1 1 1 1
Wind_Direction
215 198 194 184 172 172 174 175 164 154 130 121 126 114 104 348 16 12 39 43 52 87 104 117 107 119 133 159 144 138 117 111 125 105 68 38 48 68 240 215 205 228 213
215 205 194 183 182 187 190 183 180 169 162 155 145 140 144 139 212 360 27 35 54 111 147 141 147 148 140 129 138 148 137 145 134 133 115 38 7 4 17 114 204 234 213
212 208 200 195 190 197 195 193 189 180 173 154 115 91 66 41 31 17 8 2 14 162 180 168 165 170 170 188 197 172 167 169 151 142 149 155 203 314 352 9 17 207 192
207 204 201 200 202 206 195 190 184 177 172 157 152 154 164 196 220 203 297 324 304 261 218 203 183 178 176 190 203 175 175 163 178 170 171 175 162 166 259 348 352 39 179
203 202 202 204 206 200 191 186 175 177 173 167 172 170 182 198 185 68 329 316 321 309 292 227 183 178 181 197 192 168 162 161 175 176 162 152 141 175 177 251 313 1 2
201 202 199 193 196 189 185 179 174 187 181 176 178 179 187 181 166 261 295 318 328 335 330 301 177 180 180 199 196 177 164 171 172 169 162 167 172 181 174 203 237 324 337
192 195 192 190 191 188 187 181 179 193 188 183 191 194 194 183 191 210 228 256 302 316 309 304 213 185 190 186 174 161 162 170 169 177 185 184 188 163 154 152 166 93 357
186 194 195 193 194 192 186 182 187 198 189 189 198 197 193 189 202 202 199 218 239 259 281 244 218 200 176 172 159 142 158 149 162 175 173 161 171 159 162 159 150 130 40
186 196 191 185 185 185 186 186 189 196 194 196 193 191 192 194 203 200 192 207 231 240 280 170 167 165 156 154 140 120 124 111 109 123 157 155 159 153 166 160 159 159 168
182 186 180 177 179 181 176 170 178 192 196 191 195 196 196 203 200 182 190 201 205 187 127 129 138 124 127 132 129 123 125 122 102 98 86 46 40 99 115 137 136 147 164
171 175 170 166 162 153 155 165 169 171 179 186 185 176 189 192 180 182 201 201 179 159 163 146 94 100 107 117 121 129 127 120 95 90 97 57 68 93 93 102 107 108 132
149 146 139 133 136 146 156 166 170 175 184 175 166 163 162 158 170 184 191 176 163 158 155 117 104 104 97 104 122 137 126 119 102 85 84 64 73 80 83 95 102 112 130
120 115 116 127 134 144 157 167 172 176 170 157 153 151 151 150 158 169 171 157 149 133 108 110 112 106 106 108 119 132 120 113 111 102 102 97 92 83 87 96 98 103 104
123 120 120 116 119 130 146 157 162 157 148 142 146 152 159 163 162 149 135 140 139 123 106 100 108 115 118 112 115 118 115 104 91 86 91 95 107 115 113 100 96 102 96
115 123 121 112 109 105 100 112 131 141 142 139 144 152 144 136 126 118 119 118 119 125 113 98 83 82 99 101 107 108 106 104 93 80 76 78 83 86 92 104 111 113 107
139 139 128 123 127 128 118 100 100 122 132 136 135 122 110 107 107 116 116 110 108 104 96 92 90 75 71 91 106 110 103 101 98 86 74 75 68 75 81 89 98 108 119
155 147 142 140 137 133 127 120 108 107 115 119 114 108 102 98 100 118 114 113 105 97 93 86 86 78 65 90 106 107 113 107 99 92 83 79 73 81 86 78 73 68 72
153 147 142 134 129 122 114 108 97 102 108 108 108 107 111 111 108 108 109 108 106 105 104 94 89 82 68 83 98 104 102 94 89 84 84 88 74 79 99 95 78 64 53
146 142 134 130 121 117 118 114 107 106 105 106 110 114 120 119 117 119 118 113 107 99 97 96 89 83 67 77 92 101 98 88 74 62 60 82 83 77 99 100 89 69 47
128 128 118 109 111 114 118 117 117 116 119 119 113 107 111 116 119 121 112 100 105 107 102 84 79 85 76 74 86 97 97 88 72 55 50 57 76 84 93 100 101 90 52
114 116 113 110 115 121 118 116 117 125 123 114 110 100 100 116 118 108 105 107 103 95 87 83 68 67 68 74 81 92 102 111 97 77 57 51 73 85 87 85 88 106 110
106 112 112 102 92 108 122 122 120 113 101 103 104 97 87 94 105 110 105 106 113 109 99 89 73 55 54 69 85 90 96 111 106 95 73 63 76 82 78 76 79 83 85
112 109 109 100 88 99 120 125 124 111 99 91 87 88 85 77 91 108 113 110 111 114 113 108 96 64 53 60 69 81 91 99 99 94 95 83 78 76 71 66 71 80 83
110 108 107 106 96 84 93 106 108 102 98 96 88 85 88 82 76 80 89 102 114 120 123 125 120 88 59 59 73 86 95 93 91 89 83 78 72 70 62 58 57 65 78
101 110 120 121 112 97 84 88 100 109 107 103 97 92 91 96 86 77 67 86 96 147 151 157 159 154 151 238 137 128 118 114 110 103 80 69 65 61 51 48 45 50 60
108 111 113 114 112 110 104 99 106 117 119 113 107 109 110 106 107 107 81 55 63 66 81 99 122 109 127 114 107 101 95 95 107 101 91 80 74 74 62 48 39 45 52